Terminal Aerodrome Forecast
Issued by NWS North Platte, NE

Home | Current Version | Previous Version | Text Only | Print | Product List | Glossary On
Versions: 1 2 3 4 5 6 7 8 9 10 11 12 13 14 15 16 17
000
FTUS43 KLBF 020500
TAFLBF
TAF
KLBF 020520Z 0206/0306 36014G20KT P6SM OVC100
      TEMPO 0206/0207 -SHRA OVC060
     FM020800 34006KT P6SM SCT080
     FM021800 34006KT P6SM OVC100 PROB30 0218/0224 P6SM -SHRA
      OVC080=

USA.gov is the U.S. government's official web portal to all federal, state and local government web resources and services.